Back to catalog

HEAD-1

AliveScienceSSO
NORAD 43011·PAYLOAD·🇨🇳 China

Launched Nov 14, 2017 from Taiyuan Satellite Launch Center

Loading…

Next Passes (next 24 hours)

TLE

FreshSource: Space-Track

Epoch: Sep 14, 2026, 14:15 UTC

1 43011U 17072B   26257.59390139  .00000162  00000-0  82768-4 0  9991
2 43011  98.9534 278.4872 0008881 253.9140 106.1063 14.28844392460121

Track HEAD-1 in real time with AllMySat

Download on the App Store